Jackson, KY

5:36 PM EST on November 15, 2019 (GMT -0500)
Carroll

Weather History for KJKL - September, 2019

Change the Weather History Date:

Saturday, September 28, 2019

  Actual Average Record
Temperature  
Mean Temperature 83 °F 64 °F  
Max Temperature 94 °F 74 °F 94 °F (2019)
Min Temperature 72 °F 54 °F 41 °F (1985)
Degree Days  
Heating Degree Days 0 4  
Month to date heating degree days 0 41  
Since 1 July heating degree days 0 43  
Cooling Degree Days 18 3  
Month to date cooling degree days 329 140  
Year to date cooling degree days 1466 1118  
Growing Degree Days 32 (Base 50)    
Moisture  
Dew Point 65 °F    
Average Humidity 59    
Maximum Humidity 79    
Minimum Humidity 38    
Precipitation  
Precipitation T in 0.12 in 1.06 in (1996)
Month to date precipitation T 3.23  
Year to date precipitation 39.46 36.78  
Snow  
Snow 0.00 in 0.00 in - ()
Month to date snowfall 0.0 0.0  
Since 1 July snowfall 0.0 0.0  
Since 1 September snowfall 0.0 0.0  
Snow Depth 0.00 in    
Sea Level Pressure  
Sea Level Pressure 30.05 in    
Wind  
Wind Speed 2 mph (SW)    
Max Wind Speed 9 mph    
Max Gust Speed 18 mph    
Visibility 10 miles    
Events      
T = Trace of Precipitation, MM = Missing Value Source: NWS Daily Summary

Daily Weather History Graph

Daily Weather History Graph

Search for Another Location

Airport or City:

Astronomy

Sep. 28, 2019 Rise Set
Actual Time 7:26 AM EDT 7:21 PM EDT
Civil Twilight 6:59 AM EDT 7:47 PM EDT
Nautical Twilight 6:29 AM EDT 8:17 PM EDT
Astronomical Twilight 5:58 AM EDT 8:48 PM EDT
Moon 7:02 AM EDT (9/28) 7:45 PM EDT (9/28)
Length of Visible Light 12h 47m
Length of Day
11h 55m
Waning Crescent, 0% of the Moon is Illuminated
Sep 28
Waning Crescent
Sep 28
New
Oct 5
First Quarter
Oct 13
Full
Oct 21
Last Quarter

Hourly Weather History & Observations

Time (EDT) Temp. Heat Index Dew Point Humidity Pressure Visibility Wind Dir Wind Speed Gust Speed Precip Events Conditions
12:53 AM 75.0 °F - 64.9 °F 71% 29.94 in 10.0 mi Calm Calm - N/A   Clear
1:53 AM 75.9 °F - 64.9 °F 69% 29.96 in 10.0 mi Calm Calm - N/A   Scattered Clouds
2:53 AM 75.0 °F - 64.9 °F 71% 29.96 in 10.0 mi Calm Calm - N/A   Partly Cloudy
3:53 AM 73.9 °F - 64.9 °F 73% 29.97 in 10.0 mi Calm Calm - N/A   Clear
4:53 AM 73.9 °F - 64.9 °F 73% 29.99 in 10.0 mi Calm Calm - N/A   Clear
5:53 AM 72.0 °F - 64.9 °F 78% 30.00 in 10.0 mi SSW 3.5 mph - N/A   Clear
6:53 AM 73.0 °F - 64.9 °F 76% 30.01 in 10.0 mi Variable 4.6 mph - N/A   Scattered Clouds
7:53 AM 73.0 °F - 66.0 °F 79% 30.04 in 10.0 mi Calm Calm - N/A   Clear
8:53 AM 75.0 °F - 66.9 °F 76% 30.07 in 10.0 mi Calm Calm - N/A   Clear
9:53 AM 75.9 °F - 66.9 °F 74% 30.09 in 10.0 mi Calm Calm - N/A   Mostly Cloudy
10:53 AM 84.0 °F 87.0 °F 68.0 °F 58% 30.11 in 10.0 mi Variable 4.6 mph - 0.00 in   Partly Cloudy
11:53 AM 82.0 °F 84.9 °F 68.0 °F 62% 30.12 in 10.0 mi Variable 4.6 mph - 0.00 in   Clear
12:53 PM 87.1 °F 90.6 °F 68.0 °F 53% 30.11 in 10.0 mi Variable 3.5 mph - N/A   Clear
1:53 PM 90.0 °F 92.4 °F 66.0 °F 45% 30.08 in 10.0 mi Calm Calm - N/A   Clear
2:53 PM 93.0 °F 95.0 °F 64.9 °F 39% 30.06 in 10.0 mi North - - N/A   Partly Cloudy
3:53 PM 93.9 °F 95.6 °F 64.0 °F 37% 30.05 in 10.0 mi South 8.1 mph - N/A   Scattered Clouds
4:53 PM 91.9 °F 92.9 °F 63.0 °F 38% 30.05 in 10.0 mi Variable 4.6 mph - N/A   Partly Cloudy
5:53 PM 88.0 °F 88.7 °F 63.0 °F 43% 30.06 in 10.0 mi Variable 5.8 mph - N/A   Scattered Clouds
6:53 PM 84.9 °F 86.6 °F 64.9 °F 51% 30.08 in 10.0 mi Calm Calm - N/A   Partly Cloudy
7:53 PM 82.9 °F 85.0 °F 66.0 °F 56% 30.08 in 10.0 mi Calm Calm - N/A   Mostly Cloudy
8:53 PM 82.0 °F 84.1 °F 66.0 °F 58% 30.09 in 10.0 mi Calm Calm - N/A   Scattered Clouds
9:53 PM 80.1 °F 81.9 °F 64.9 °F 60% 30.11 in 10.0 mi WSW 3.5 mph - N/A   Clear
10:53 PM 77.0 °F - 66.0 °F 69% 30.13 in 10.0 mi Calm Calm - N/A   Clear
11:53 PM 79.0 °F - 63.0 °F 58% 30.13 in 10.0 mi WNW 4.6 mph - N/A   Clear